Вернуться в каталог

FREGAT R/B

LostMEO
NORAD 65591·ROCKET BODY·🇷🇺 Russia

Запущен Sep 13, 2025 с Plesetsk Cosmodrome

Loading…

Ближайшие Пролёты (ближайшие 24 часа)

TLE

УстаревшееSource: Space-Track

Эпоха: Jun 22, 2026, 22:41 UTC

1 65591U 25206C   26173.94520198 -.00000078  00000-0  00000-0 0  9994
2 65591  64.6387 314.6277 0010646 176.1218 183.8795  2.14651457  6085

Отслеживайте FREGAT R/B в реальном времени с AllMySat

Download on the App Store